, AK

(GMT )
Anchorage

Weather History for PANC - December, 2013

Change the Weather History Date:

Tuesday, December 24, 2013

  Actual Average Record
Temperature  
Mean Temperature 3 °F 18 °F  
Max Temperature 7 °F 25 °F 47 °F (1962)
Min Temperature -2 °F 13 °F -25 °F (1961)
Degree Days  
Heating Degree Days 62    
Month to date heating degree days 1174  
Since 1 July heating degree days 3984  
Cooling Degree Days 0    
Month to date cooling degree days 0  
Year to date cooling degree days 21  
Moisture  
Dew Point -7 °F    
Average Humidity 73    
Maximum Humidity 86    
Minimum Humidity 60    
Precipitation  
Precipitation 0.00 in 0.04 in 0.34 in (1970)
Month to date precipitation 1.61 0.89  
Year to date precipitation 25.98 16.36  
Snow  
Snow 0.00 in 0.50 in 4.20 in (2002)
Month to date snowfall 23.2 13.2  
Since 1 July snowfall 34.4 34.6  
Since 1 September snowfall 34.6  
Snow Depth 0.00 in    
Sea Level Pressure  
Sea Level Pressure 30.03 in    
Wind  
Wind Speed 8 mph (North)    
Max Wind Speed 15 mph    
Max Gust Speed -    
Visibility 10 miles    
Events Fog    
T = Trace of Precipitation, MM = Missing Value Source: NWS Daily Summary

Daily Weather History Graph

Daily Weather History Graph

Search for Another Location

Airport or City:

Trip Planner

Search our weather history database for the weather conditions in past years. The results will help you decide how hot, cold, wet, or windy it might be!

Date:

Astronomy

Dec. 24, 2013 Rise Set
Actual Time 10:15 AM AKST 3:44 PM AKST
Civil Twilight 9:13 AM AKST 4:46 PM AKST
Nautical Twilight 8:13 AM AKST 5:46 PM AKST
Astronomical Twilight 7:19 AM AKST 6:39 PM AKST
Moon No Moon Rise 12:14 PM AKST (12/24)
Length of Visible Light 7h 33m
Length of Day
5h 29m
Waning Gibbous, 57% of the Moon is Illuminated
Dec 24
Waning Gibbous
Dec 25
Last Quarter
Jan 1
New
Jan 7
First Quarter
Jan 15
Full

Hourly Weather History & Observations

Time (AKST) Temp. Windchill Dew Point Humidity Pressure Visibility Wind Dir Wind Speed Gust Speed Precip Events Conditions
12:53 AM 3.0 °F -12.5 °F -0.9 °F 84% 30.18 in 10.0 mi North 10.4 mph - N/A   Partly Cloudy
1:53 AM 1.9 °F -10.6 °F -4.0 °F 76% 30.18 in 10.0 mi North 6.9 mph - N/A   Partly Cloudy
3:53 AM 1.0 °F -8.7 °F -5.1 °F 75% 30.16 in 10.0 mi North 4.6 mph - N/A   Partly Cloudy
4:53 AM -0.9 °F -12.7 °F -7.1 °F 75% 30.16 in 10.0 mi North 5.8 mph - N/A   Partly Cloudy
5:53 AM -0.9 °F -11.0 °F -8.0 °F 72% 30.14 in 10.0 mi North 4.6 mph - N/A Fog Partly Cloudy
6:53 AM -0.0 °F -9.9 °F -7.1 °F 72% 30.14 in 10.0 mi NNE 4.6 mph - N/A Fog Partly Cloudy
7:53 AM 1.0 °F -10.3 °F -7.1 °F 69% 30.13 in 10.0 mi North 5.8 mph - N/A Fog Partly Cloudy
8:53 AM -0.0 °F -9.9 °F -8.0 °F 69% 30.12 in 10.0 mi North 4.6 mph - N/A   Scattered Clouds
9:07 AM -0.4 °F -14.7 °F -7.6 °F 72% 30.10 in 10.0 mi NNE 8.1 mph - N/A   Scattered Clouds
9:53 AM -0.0 °F -13.0 °F -9.0 °F 66% 30.11 in 10.0 mi North 6.9 mph - N/A   Scattered Clouds
10:53 AM -0.0 °F -14.2 °F -8.0 °F 69% 30.10 in 10.0 mi North 8.1 mph - N/A   Scattered Clouds
11:53 AM 1.9 °F -10.6 °F -8.0 °F 63% 30.08 in 10.0 mi NNE 6.9 mph - N/A   Scattered Clouds
12:47 PM 1.4 °F -8.3 °F -7.6 °F 66% 30.04 in 10.0 mi NNE 4.6 mph - N/A   Scattered Clouds
12:53 PM 3.0 °F -8.0 °F -8.0 °F 60% 30.05 in 10.0 mi NNE 5.8 mph - N/A   Scattered Clouds
1:53 PM 3.0 °F -11.5 °F -8.0 °F 60% 30.03 in 10.0 mi North 9.2 mph - N/A   Scattered Clouds
2:53 PM 3.0 °F -11.5 °F -7.1 °F 63% 30.00 in 10.0 mi North 9.2 mph - N/A   Scattered Clouds
3:53 PM 3.0 °F -12.5 °F -6.0 °F 66% 29.97 in 10.0 mi NNE 10.4 mph - N/A   Scattered Clouds
4:53 PM 5.0 °F -10.8 °F -7.1 °F 58% 29.95 in 10.0 mi North 11.5 mph - N/A   Scattered Clouds
5:53 PM 6.1 °F -11.6 °F -6.0 °F 58% 29.92 in 10.0 mi North 15.0 mph - N/A   Partly Cloudy
6:53 PM 6.1 °F -10.9 °F -6.0 °F 58% 29.90 in 10.0 mi North 13.8 mph - N/A   Clear
7:53 PM 5.0 °F -11.6 °F -6.0 °F 61% 29.88 in 10.0 mi North 12.7 mph - N/A   Clear
8:53 PM 6.1 °F -9.5 °F -6.0 °F 58% 29.86 in 10.0 mi North 11.5 mph - N/A   Clear
9:53 PM 6.1 °F -9.5 °F -6.0 °F 58% 29.83 in 10.0 mi North 11.5 mph - N/A   Clear
10:53 PM 6.1 °F -9.5 °F -6.0 °F 58% 29.81 in 10.0 mi North 11.5 mph - N/A   Clear
11:53 PM 6.1 °F -10.9 °F -6.0 °F 58% 29.80 in 10.0 mi North 13.8 mph - N/A   Clear